CORVUS BC1

Last updated on Thu Nov 21 2024 00:03:40 GMT+0000 (Coordinated Universal Time)

1 42847U 17042Y 24325.49002357 .00006143 00000+0 49308-3 0 9995 2 42847 97.3691 142.5931 0008777 233.7819 126.2595 15.00375894400870
UTC large
Height (km)
Speed (km/s)
/
Latitude / Longitude
Inclination (degrees)
Orbital Period (minutes)
Azimuth
Elevation
Range (km)
Doppler Factor

Next 0 passes for location: London (51.5072 / 0.1276)

Sorry there are no passes over London.